Kerrville, TX

3:35 PM CDT on May 28, 2017 (GMT -0500)
Kerrville Municipal-Schreiner

Weather History for KERV - November, 2013

Change the Weather History Date:

Tuesday, November 26, 2013

  Actual Average (KHDO) Record (KHDO)
Temperature  
Mean Temperature 42 °F -  
Max Temperature 49 °F 66 °F 78 °F (2001)
Min Temperature 36 °F 44 °F 28 °F (1999)
Degree Days  
Heating Degree Days 22    
Moisture  
Dew Point 31 °F    
Average Humidity 73    
Maximum Humidity 89    
Minimum Humidity 47    
Precipitation  
Precipitation 0.00 in - - ()
Sea Level Pressure  
Sea Level Pressure 30.24 in    
Wind  
Wind Speed 12 mph (NNW)    
Max Wind Speed 23 mph    
Max Gust Speed 30 mph    
Visibility 10 miles    
Events Rain    
Averages and records for this station are not official NWS values.
T = Trace of Precipitation, MM = Missing Value Source: NWS Daily Summary

Daily Weather History Graph

Daily Weather History Graph

Search for Another Location

Airport or City:

Trip Planner

Search our weather history database for the weather conditions in past years. The results will help you decide how hot, cold, wet, or windy it might be!

Date:

Astronomy

Nov. 26, 2013 Rise Set
Actual Time 7:10 AM CST 5:36 PM CST
Civil Twilight 6:44 AM CST 6:02 PM CST
Nautical Twilight 6:15 AM CST 6:31 PM CST
Astronomical Twilight 5:46 AM CST 7:00 PM CST
Moon 12:43 AM CST (11/26) 1:18 PM CST (11/26)
Length of Visible Light 11h 17m
Length of Day
10h 25m
Last Quarter, 41% of the Moon is Illuminated
Nov 26
Last Quarter
Dec 2
New
Dec 9
First Quarter
Dec 17
Full
Dec 25
Last Quarter

Hourly Weather History & Observations

Time (CST) Temp. Windchill Dew Point Humidity Pressure Visibility Wind Dir Wind Speed Gust Speed Precip Events Conditions
12:15 AM 37.4 °F 28.9 °F 33.6 °F 86% 30.15 in 10.0 mi NNW 13.8 mph 19.6 mph N/A   Overcast
12:35 AM 37.4 °F 30.8 °F 33.8 °F 87% 30.17 in 10.0 mi North 9.2 mph - N/A   Overcast
12:55 AM 37.4 °F 29.8 °F 33.6 °F 86% 30.16 in 10.0 mi NNW 11.5 mph - N/A   Overcast
1:15 AM 37.4 °F 29.3 °F 33.8 °F 87% 30.13 in 10.0 mi NNW 12.7 mph 17.3 mph N/A   Overcast
1:35 AM 37.4 °F 30.3 °F 33.8 °F 87% 30.14 in 10.0 mi NNW 10.4 mph - N/A   Overcast
1:55 AM 37.4 °F 29.8 °F 33.8 °F 87% 30.14 in 10.0 mi North 11.5 mph - N/A   Overcast
2:15 AM 36.7 °F 28.9 °F 33.1 °F 87% 30.14 in 10.0 mi North 11.5 mph - N/A   Overcast
2:35 AM 36.5 °F 30.3 °F 32.7 °F 86% 30.14 in 10.0 mi NNW 8.1 mph - N/A   Overcast
2:55 AM 36.5 °F 30.3 °F 32.9 °F 87% 30.14 in 10.0 mi NNW 8.1 mph 17.3 mph N/A   Overcast
3:15 AM 36.3 °F 28.0 °F 32.9 °F 87% 30.14 in 10.0 mi North 12.7 mph - N/A   Overcast
3:35 AM 36.0 °F 28.0 °F 33.1 °F 89% 30.15 in 10.0 mi NNW 11.5 mph - N/A   Overcast
3:55 AM 36.0 °F 29.6 °F 32.2 °F 86% 30.16 in 10.0 mi NNW 8.1 mph - N/A   Overcast
4:15 AM 36.0 °F 29.0 °F 32.0 °F 86% 30.16 in 10.0 mi North 9.2 mph - N/A   Overcast
4:35 AM 36.0 °F 28.5 °F 32.4 °F 87% 30.16 in 10.0 mi NW 10.4 mph - N/A   Overcast
4:55 AM 36.0 °F 29.6 °F 32.5 °F 87% 30.17 in 10.0 mi NW 8.1 mph - N/A   Overcast
5:15 AM 36.0 °F 26.7 °F 32.7 °F 88% 30.17 in 10.0 mi NW 15.0 mph - N/A   Light Drizzle
5:35 AM 36.0 °F 27.1 °F 32.2 °F 86% 30.17 in 10.0 mi NNW 13.8 mph 17.3 mph N/A   Overcast
5:55 AM 36.0 °F 29.0 °F 32.4 °F 87% 30.17 in 10.0 mi NNW 9.2 mph 17.3 mph N/A   Overcast
6:15 AM 36.0 °F 28.0 °F 32.4 °F 87% 30.18 in 10.0 mi NNW 11.5 mph 17.3 mph N/A   Overcast
6:35 AM 36.0 °F 27.1 °F 32.0 °F 86% 30.18 in 10.0 mi NNW 13.8 mph 20.7 mph N/A   Overcast
6:55 AM 36.0 °F 26.0 °F 32.0 °F 86% 30.19 in 10.0 mi NNW 17.3 mph 21.9 mph N/A   Overcast
7:15 AM 36.0 °F 27.5 °F 32.0 °F 86% 30.20 in 10.0 mi NW 12.7 mph 21.9 mph N/A   Overcast
7:35 AM 36.0 °F 26.3 °F 31.6 °F 84% 30.21 in 10.0 mi NNW 16.1 mph 20.7 mph N/A   Overcast
7:55 AM 36.0 °F 26.3 °F 31.3 °F 83% 30.22 in 10.0 mi NNW 16.1 mph 24.2 mph N/A   Overcast
8:15 AM 36.0 °F 26.7 °F 32.9 °F 89% 30.23 in 7.0 mi NW 15.0 mph 24.2 mph N/A Rain Rain
8:35 AM 36.0 °F 26.0 °F 32.5 °F 87% 30.24 in 10.0 mi NW 17.3 mph 26.5 mph N/A   Overcast
8:55 AM 36.0 °F 26.3 °F 31.5 °F 84% 30.24 in 10.0 mi NW 16.1 mph 23.0 mph N/A   Overcast
9:15 AM 36.0 °F 26.0 °F 31.5 °F 84% 30.25 in 10.0 mi NW 17.3 mph 27.6 mph N/A   Overcast
9:35 AM 36.0 °F 26.7 °F 32.0 °F 86% 30.26 in 10.0 mi NNW 15.0 mph 25.3 mph N/A   Overcast
9:55 AM 36.0 °F 26.7 °F 32.0 °F 86% 30.27 in 10.0 mi NW 15.0 mph 26.5 mph N/A   Overcast
10:15 AM 36.0 °F 26.7 °F 31.8 °F 85% 30.27 in 10.0 mi NNW 15.0 mph 26.5 mph N/A   Overcast
10:35 AM 36.0 °F 25.6 °F 31.8 °F 85% 30.27 in 10.0 mi NNW 18.4 mph 25.3 mph N/A   Overcast
10:55 AM 36.0 °F 26.3 °F 31.8 °F 85% 30.27 in 10.0 mi NNW 16.1 mph 21.9 mph N/A   Overcast
11:15 AM 36.0 °F 26.7 °F 31.6 °F 84% 30.27 in 10.0 mi NNW 15.0 mph 25.3 mph N/A   Overcast
11:35 AM 36.0 °F 25.6 °F 30.9 °F 82% 30.27 in 10.0 mi NNW 18.4 mph 25.3 mph N/A   Overcast
11:55 AM 36.7 °F 25.7 °F 30.9 °F 80% 30.27 in 10.0 mi NNW 21.9 mph 26.5 mph N/A   Overcast
12:15 PM 37.8 °F 27.4 °F 32.0 °F 80% 30.26 in 10.0 mi NW 20.7 mph 26.5 mph N/A   Overcast
12:35 PM 38.5 °F 28.3 °F 31.8 °F 77% 30.25 in 10.0 mi NW 20.7 mph 26.5 mph N/A   Overcast
12:55 PM 39.6 °F 31.0 °F 31.6 °F 73% 30.24 in 10.0 mi NW 16.1 mph 24.2 mph N/A   Mostly Cloudy
1:15 PM 41.0 °F 32.5 °F 32.0 °F 70% 30.23 in 10.0 mi NW 17.3 mph 25.3 mph N/A   Overcast
1:35 PM 43.3 °F 35.8 °F 32.7 °F 66% 30.22 in 10.0 mi NW 16.1 mph 21.9 mph N/A   Mostly Cloudy
1:55 PM 44.2 °F 36.2 °F 32.7 °F 64% 30.22 in 10.0 mi NNW 19.6 mph 24.2 mph N/A   Mostly Cloudy
2:15 PM 44.4 °F 36.4 °F 33.1 °F 64% 30.23 in 10.0 mi NW 19.6 mph 26.5 mph N/A   Mostly Cloudy
2:35 PM 45.9 °F 39.1 °F 32.9 °F 61% 30.23 in 10.0 mi NNW 16.1 mph 25.3 mph N/A   Mostly Cloudy
2:55 PM 48.4 °F - 33.4 °F 56% 30.23 in 10.0 mi NW 23.0 mph 29.9 mph N/A   Scattered Clouds
3:15 PM 48.6 °F - 32.4 °F 54% 30.23 in 10.0 mi NW 15.0 mph 27.6 mph N/A   Scattered Clouds
3:35 PM 48.6 °F - 30.6 °F 50% 30.23 in 10.0 mi NW 18.4 mph 27.6 mph N/A   Clear
3:55 PM 49.3 °F - 30.7 °F 49% 30.23 in 10.0 mi NNW 18.4 mph 28.8 mph N/A   Clear
4:15 PM 48.7 °F - 29.5 °F 47% 30.23 in 10.0 mi NW 13.8 mph 23.0 mph N/A   Clear
4:35 PM 48.6 °F - 29.7 °F 48% 30.24 in 10.0 mi NNW 15.0 mph 27.6 mph N/A   Clear
4:55 PM 48.6 °F - 29.3 °F 47% 30.24 in 10.0 mi NNW 18.4 mph 25.3 mph N/A   Clear
5:15 PM 48.2 °F - 30.6 °F 51% 30.25 in 10.0 mi NNW 15.0 mph 25.3 mph N/A   Clear
5:35 PM 46.0 °F 40.2 °F 29.3 °F 52% 30.25 in 10.0 mi NW 12.7 mph 18.4 mph N/A   Clear
5:55 PM 45.5 °F 39.2 °F 28.6 °F 52% 30.27 in 10.0 mi NW 13.8 mph 19.6 mph N/A   Clear
6:15 PM 44.2 °F 38.4 °F 29.1 °F 55% 30.28 in 10.0 mi NW 11.5 mph - N/A   Clear
6:35 PM 43.7 °F 38.6 °F 30.0 °F 59% 30.28 in 10.0 mi NNW 9.2 mph - N/A   Clear
6:55 PM 43.2 °F - 30.4 °F 61% 30.29 in 10.0 mi Calm Calm - N/A   Clear
7:15 PM 41.2 °F 35.0 °F 30.7 °F 66% 30.29 in 10.0 mi NW 10.4 mph - N/A   Clear
7:35 PM 41.0 °F - 31.1 °F 68% 30.30 in 10.0 mi Calm Calm - N/A   Clear
7:55 PM 41.0 °F - 31.3 °F 68% 30.29 in 10.0 mi Calm Calm - N/A   Clear
8:15 PM 41.4 °F - 30.7 °F 66% 30.30 in 10.0 mi Calm Calm - N/A   Clear
8:35 PM 41.0 °F - 30.2 °F 65% 30.32 in 10.0 mi Calm Calm - N/A   Clear
8:55 PM 41.0 °F - 30.0 °F 65% 30.33 in 10.0 mi Calm Calm - N/A   Clear
9:15 PM 41.0 °F 35.8 °F 29.8 °F 64% 30.34 in 10.0 mi North 8.1 mph - N/A   Clear
9:35 PM 41.0 °F 35.2 °F 29.1 °F 63% 30.35 in 10.0 mi NNW 9.2 mph - N/A   Clear
9:55 PM 41.0 °F 34.3 °F 28.8 °F 62% 30.35 in 10.0 mi North 11.5 mph - N/A   Clear
10:15 PM 41.0 °F - 27.5 °F 59% 30.34 in 10.0 mi Calm Calm - N/A   Clear
10:35 PM 41.0 °F 33.9 °F 27.0 °F 57% 30.35 in 10.0 mi NNW 12.7 mph - N/A   Clear
10:55 PM 41.0 °F - 26.6 °F 57% 30.36 in 10.0 mi Calm Calm - N/A   Scattered Clouds
11:15 PM 41.0 °F - 27.1 °F 58% 30.36 in 10.0 mi Calm Calm - N/A   Clear
11:35 PM 41.0 °F - 27.3 °F 58% 30.36 in 10.0 mi Calm Calm - N/A   Clear
11:55 PM 41.0 °F 35.8 °F 27.7 °F 59% 30.36 in 10.0 mi NNW 8.1 mph - N/A   Clear